Regional Weather Roundup
Issued by NWS

Home | Current Version | Previous Version | Graphics & Text | Print | Product List | Glossary On
Versions: 1 2 3 4 5 6 7 8 9 10 11 12 13 14 15 16 17 18 19 20 21 22 23 24 25 26 27 28 29 30 31 32 33 34 35 36 37 38 39 40 41 42 43 44 45 46 47 48 49 50
521
ASUS43 KOAX 220902
RWRNE

WEATHER ROUNDUP FOR NEBRASKA
NATIONAL WEATHER SERVICE OMAHA NE
400 AM CDT FRI SEP 22 2017

NOTES: SATELLITE DATA IS BEING USED TO AUGMENT CLOUD COVER ABOVE
       12000 FEET.
       "FAIR" INDICATES FEW OR NO CLOUDS BELOW 12,000 FEET WITH NO
       SIGNIFICANT WEATHER AND/OR OBSTRUCTIONS TO VISIBILITY.


NEZ001>004-019>022-054>056-221000-
NEBRASKA PANHANDLE

CITY           SKY/WX    TMP DP  RH WIND       PRES   REMARKS
SCOTTSBLUFF    PTCLDY    52  40  63 N5        29.71R
ALLIANCE       CLEAR     50  41  71 N14       29.66R
CHADRON        CLOUDY    52  40  63 N9        29.71S
GORDON         FAIR      52  42  66 CALM      29.67R
KIMBALL        CLEAR     53  40  61 NW15G23   29.73R
SIDNEY         CLEAR     59  30  33 SW14      29.67R
$$

NEZ057>060-069>072-079>082-221000-
SOUTHWEST NEBRASKA

CITY           SKY/WX    TMP DP  RH WIND       PRES   REMARKS
NORTH PLATTE   CLEAR     78  64  61 S17       29.65R
IMPERIAL       CLEAR     66  43  43 S9        29.67S
LEXINGTON      CLEAR     78  66  67 S17G26    29.70S
MCCOOK         LGT RAIN  78  65  63 S18G28    29.68S
OGALLALA       CLEAR     63  43  48 S10G16    29.64R
$$

NEZ005>010-023>029-035>040-094-221000-
NORTH CENTRAL NEBRASKA

CITY           SKY/WX    TMP DP  RH WIND       PRES   REMARKS
VALENTINE      CLEAR     70  54  56 S20       29.59F
AINSWORTH      CLEAR     71  63  77 S16       29.64S
BROKEN BOW     CLEAR     77  67  71 S20G28    29.68S
O`NEILL        CLEAR     78  69  73 S22G30    29.68F
ORD            CLEAR     78  66  66 S17G29    29.68F
THEDFORD       CLEAR     76  64  67 S18G25    29.65S
$$

NEZ041-046>049-061>064-073>077-083>087-221000-
SOUTH CENTRAL NEBRASKA

CITY           SKY/WX    TMP DP  RH WIND       PRES   REMARKS
GRAND ISLAND   CLEAR     77  71  82 S20G26    29.75F
AURORA         CLEAR     77  71  81 S16G24    29.77F
HASTINGS       CLEAR     78  68  71 S13G24    29.77F
HEBRON         CLEAR     80  70  71 S15G22    29.80S
HOLDREGE       CLEAR     77  66  68 S18G26    29.73F
KEARNEY        CLEAR     78  68  71 S22G31    29.73F
YORK           CLEAR     77  72  83 S15       29.78F
$$

NEZ011>018-030>034-042>045-221000-
NORTHEAST NEBRASKA

CITY           SKY/WX    TMP DP  RH WIND       PRES   REMARKS
NORFOLK        CLEAR     78  71  79 S20G26    29.74S
ALBION         CLEAR     78  72  81 S14G23    29.74S
BLAIR          CLEAR     78  71  81 S15       29.82S
COLUMBUS       CLEAR     79  71  76 S17       29.76S
FREMONT        CLEAR     77  69  77 SE10G16   29.80S
TEKAMAH        CLEAR     77  71  82 SE10      29.79S
WAYNE          PTCLDY    75  73  91 S14       29.76S
$$

NEZ050>053-065>068-078-088>093-221000-
SOUTHEAST NEBRASKA

CITY           SKY/WX    TMP DP  RH WIND       PRES   REMARKS
LINCOLN        CLEAR     79  70  74 S17       29.80S
OMAHA EPPLEY   PTCLDY    79  71  76 S16       29.82S
BEATRICE       CLEAR     79  70  73 S14       29.83S
FALLS CITY     PTCLDY    78  70  76 S13       29.86S
NEBRASKA CITY  CLEAR     76  74  92 S14       29.85F
PLATTSMOUTH    PTCLDY    76  72  86 S12G17    29.84S
$$

NEZ044-045-051>053-067-221000-
OMAHA AREA

CITY           SKY/WX    TMP DP  RH WIND       PRES   REMARKS
OMAHA EPPLEY   PTCLDY    79  71  76 S16       29.82S
BLAIR          CLEAR     78  71  81 S15       29.82S
FREMONT        CLEAR     77  69  77 SE10G16   29.80S
OFFUTT AFB     PTCLDY    77  71  83 SE13      29.82S
PLATTSMOUTH    PTCLDY    76  72  86 S12G17    29.84S
WAHOO          FAIR      77  70  78 S10       29.80S
$$




USA.gov is the U.S. government's official web portal to all federal, state and local government web resources and services.